Showing default

OPS 1264 (DMSP 4A F4), 2980

Orbit data source: Space-Track

OPS 1264 (DMSP 4A F4), 2980 is a payload satellite owned by SAMSO (US) in SSO that was launched on Wed, 11 Oct 1967 UTC via a THOR BURNER 2 launch vehicle from the Air Force Western Test Range (AFWTR). Payloads include a variety of satellites, spacecraft, and rockets equipped with specific instruments for various scientific and technological missions. These include communications satellites like Starlink; space stations such as the ISS; scientific satellites like the Hubble; Earth observation satellites from companies like Planet Labs, Umbra, and HawkEye 360; GPS; miniature CubeSats for education and research; and military/defense satellites.

Loading next visibility...
OPS 1264 (DMSP 4A F4) details
Identifier
2980, 1967-096A
Orbit
SSO
Last TLE update17 hours ago
Origin
Flag of USSAMSO (US)
ManufacturerRCA/East Windsor
MissionNon-operational Defense Weather
Bus & MotorDMSP BLOCK 4A, Unknown motor
Mass79 kg wet, 79 kg dry
Launch date (UTC)
1967-10-11 (57 years ago)
Launch vehicle
THOR BURNER 2
Launch site
Air Force Western Test Range (AFWTR)
Object type
Payload
Rocket body
Debris
Shape & HBROct Cyl, 0.8 m
Radar Cross Section0.655 m², Medium (>0.1 m² and < 1m²)

Expand to show TLE details & history

TLE from 17 hours ago
0 OPS 1264 (DMSP 4A F4)
1  2980U 67096A   24355.99387830  .00001599  00000-0  31159-3 0  9999
2  2980  99.2364 358.2319 0094214 323.5985  35.8829 14.61975914 28675
Epoch: 2024-12-20T23:51Z
Definitive object data (Epoch: 2024-12-20T23:51:11.085Z)
Latitude-0.00006°
Longitude-89.61569°
Altitude636.033 km
Speed7.569 km/s
True Right ascension23h 52m 55s
True Declination0° 00' 00"
Sunlit
Object was in daylight at TLE epoch
Visualization TLE readout
Latitude18.2684°
Longitude-91.90817°
Altitude652.512 km
Speed7.552 km/s
Apparent Right ascension01h 15m 36s
Apparent Declination-10° 20' 41"
Sunlit
Object is in daylight
Visualization observer readout
Local Sidereal Time15:24:07
Azimuth52.822° ENE
Elevation-48.953°
Doppler factor1
Orbital elements
Apogee altitude750.465 km
Perigee altitude617.395 km
Semi-major axis7,062.067 km
Eccentricity0.0094214
Inclination99.2364°
RAAN358.2319°
Arg. of periapsis323.5985°
True anomaly36.52177°
Mean anomaly35.8829°
Eccentric anomaly36.20173°
Mean motion3.65717 °/min
BSTAR0.00031159
Orbital period98.44 mins
Loading maneuver chart data...
Loading historical data...
Loading historical data...
Loading historical data...
Loading historical data...
Loading historical data...
Loading historical data...
Loading historical data...
Other satellites on launch #96 in the year 1967 (1967-10-11 UTC)

OPS 1264 (DMSP 4A F4) Visibility forecast

Observer location: undefined°, undefined

Span
Click to sort rows by Start time (UTC) header in descending order
Start Az.
Max El. time (UTC)
Max El. Az.
Max El.
End time (UTC)
End Az.
4 mins2024-12-21 23:01:41.177Z86.042° E2024-12-21 23:03:41.177Z57.652° ENE14.266°2024-12-21 23:05:41.177Z31.061° NE
7 mins2024-12-22 00:37:41.177Z186.809° SSW2024-12-22 00:40:41.177Z285.181° WNW39.348°2024-12-22 00:44:41.177Z337.457° NNW
6 mins2024-12-22 12:35:41.177Z51.72° ENE2024-12-22 12:37:41.177Z86.267° E26.902°2024-12-22 12:41:41.177Z153.542° SSE
6 mins2024-12-22 14:12:41.177Z339.768° N2024-12-22 14:15:41.177Z285.857° WNW26.409°2024-12-22 14:18:41.177Z240.4° WSW
|